Volver al catálogo

STARLINK-11473

ActivoComunicacionesVLEO
NORAD 62060·PAYLOAD·🇺🇸 United States

Lanzado Nov 24, 2024 desde Vandenberg Space Force Base

Loading…

Próximos Pases (próximas 24 horas)

TLE

ActualizadoSource: CelesTrak SupGP

Época: Sep 14, 2026, 22:26 UTC

1 62060C 24217D   26257.93520833  .00047169  00000+0  38828-3 0  2570
2 62060  53.1578 218.5880 0001080  85.7688 264.4161 15.69702005    18

Sigue STARLINK-11473 en tiempo real con AllMySat

Download on the App Store